logo tempoitalia

Diretta Meteo Tromso-Langnes, Norvegiamercoledì 15 luglio ore 07:20

Mappa
Sereno 14 °C Sereno 24 Ore: T.min 10 T.max 19
Ponente Nord Km/h 3.7 Punto di rugiada: 8 °C Umidità: 67% Visibilità: 10 Km
Il sole sorge alle: Il sole tramonta alle:
15 Luglio 2020 07:20 tempo osservato: Sereno Sereno 14 67 1012 vento: Nord N 3.7
15 Luglio 2020 06:50 tempo osservato: Sereno Sereno 13 71 1013 vento: Nord N 0
15 Luglio 2020 05:50 tempo osservato: Sereno Sereno 12 76 1013 vento: Nord N 3.7
15 Luglio 2020 05:20 tempo osservato: Sereno Sereno 11 81 1013 vento: Nord N 0
15 Luglio 2020 04:20 tempo osservato: Sereno Sereno 10 81 1013 vento: Nord N 3.7
15 Luglio 2020 03:20 tempo osservato: Sereno Sereno 10 81 1013 vento: Nord N 1.8
15 Luglio 2020 02:50 tempo osservato: Sereno Sereno 10 81 1013 vento: Nord N 0
15 Luglio 2020 02:20 tempo osservato: Sereno Sereno 10 81 1013 vento: Nord N 0
15 Luglio 2020 01:50 tempo osservato: Sereno Sereno 10 81 1013 vento: Nord N 0
15 Luglio 2020 00:50 tempo osservato: Sereno Sereno 12 71 1013 vento: Nord N 5.5
15 Luglio 2020 00:20 tempo osservato: Sereno Sereno 12 76 1013 vento: Nord N 5.5
14 Luglio 2020 23:50 tempo osservato: Sereno Sereno 13 66 1013 vento: Nord N 1.8
14 Luglio 2020 23:20 tempo osservato: Sereno Sereno 13 62 1013 vento: Nord N 5.5
14 Luglio 2020 22:50 tempo osservato: Sereno Sereno 14 58 1013 vento: Nord N/NE 24
14 Luglio 2020 22:20 tempo osservato: Sereno Sereno 14 58 1013 vento: Nord N/NE 24
14 Luglio 2020 21:50 tempo osservato: Sereno Sereno 14 58 1013 vento: Nord N/NE 25.9
14 Luglio 2020 20:50 tempo osservato: Sereno Sereno 15 54 1013 vento: Nord N/NE 27.8
14 Luglio 2020 20:20 tempo osservato: Sereno Sereno 15 58 1013 vento: Nord N/NE 29.6
14 Luglio 2020 19:50 tempo osservato: Sereno Sereno 15 58 1013 vento: Nord N/NE 29.6
14 Luglio 2020 19:20 tempo osservato: Sereno Sereno 15 58 1013 vento: Nord N 27.8
14 Luglio 2020 18:50 tempo osservato: Sereno Sereno 15 58 1013 vento: Nord N 29.6
14 Luglio 2020 17:50 tempo osservato: Sereno Sereno 17 55 1014 vento: Nord N 24
14 Luglio 2020 17:20 tempo osservato: Sereno Sereno 18 48 1014 vento: Nord NE 22.2
14 Luglio 2020 16:50 tempo osservato: Poco Nuvoloso Poco Nuvoloso 18 48 1014 vento: Nord N/NE 22.2
14 Luglio 2020 16:20 tempo osservato: Poco Nuvoloso Poco Nuvoloso 18 48 1014 vento: Nord N/NE 22.2
14 Luglio 2020 15:50 tempo osservato: Poco Nuvoloso Poco Nuvoloso 18 48 1014 vento: Nord N/NE 18.5
14 Luglio 2020 15:20 tempo osservato: Poco Nuvoloso Poco Nuvoloso 18 51 1014 vento: Nord N/NE 20.3
14 Luglio 2020 14:50 tempo osservato: Poco Nuvoloso Poco Nuvoloso 19 48 1014 vento: Nord N/NE 18.5
14 Luglio 2020 14:20 tempo osservato: Poco Nuvoloso Poco Nuvoloso 19 48 1014 vento: Nord N 18.5
14 Luglio 2020 13:50 tempo osservato: Poco Nuvoloso Poco Nuvoloso 18 48 1014 vento: Nord N 14.8
14 Luglio 2020 13:20 tempo osservato: Poco Nuvoloso Poco Nuvoloso 17 59 1015 vento: Nord N 14.8
14 Luglio 2020 12:50 tempo osservato: Poco Nuvoloso Poco Nuvoloso 17 59 1015 vento: Nord N 14.8
14 Luglio 2020 12:20 tempo osservato: Poco Nuvoloso Poco Nuvoloso 16 63 1015 vento: Nord N 18.5
14 Luglio 2020 11:50 tempo osservato: Sereno Sereno 17 59 1015 vento: Nord N 16.7
14 Luglio 2020 11:20 tempo osservato: Sereno Sereno 17 55 1015 vento: Nord N/NE 14.8
14 Luglio 2020 10:50 tempo osservato: Sereno Sereno 16 63 1015 vento: Nord N 14.8
14 Luglio 2020 10:20 tempo osservato: Sereno Sereno 15 67 1016 vento: Nord N 16.7
14 Luglio 2020 09:50 tempo osservato: Sereno Sereno 15 67 1016 vento: Nord N/NO 7.4
14 Luglio 2020 09:20 tempo osservato: Sereno Sereno 14 76 1016 vento: Nord N 5.5
14 Luglio 2020 08:50 tempo osservato: Sereno Sereno 13 76 1016 vento: Nord N 5.5
14 Luglio 2020 08:20 tempo osservato: Sereno Sereno 13 76 1016 vento: Nord N 5.5
14 Luglio 2020 07:50 tempo osservato: Sereno Sereno 12 81 1016 vento: Nord N 3.7